Regional Weather Roundup
Issued by NWS

Home | Current Version | Previous Version | Graphics & Text | Print | Product List | Glossary On
Versions: 1 2 3 4 5 6 7 8 9 10 11 12 13 14 15 16 17 18 19 20 21 22 23 24 25 26 27 28 29 30 31 32 33 34 35 36 37 38 39 40 41 42 43 44 45 46 47 48 49 50
000
ASUS45 KTFX 211110
RWRMT
MONTANA REGIONAL WEATHER ROUNDUP
NATIONAL WEATHER SERVICE GREAT FALLS MT
500 AM MDT FRI JUL 21 2017

NOTE: "FAIR" INDICATES FEW OR NO CLOUDS BELOW 12000 FEET WITH NO
SIGNIFICANT WEATHER AND/OR OBSTRUCTIONS TO VISIBILITY.

MTZ001>007-043-211200-
WEST OF THE DIVIDE

CITY           SKY/WX    TMP DP  RH WIND       PRES   REMARKS
KALISPELL      PTCLDY    50  39  66 S7        30.04S
MISSOULA       CLEAR     54  36  50 NW5       30.10R
BUTTE          CLEAR     49  37  63 CALM      30.16R
MULLAN PASS    CLEAR     48  35  60 SW7       30.17S
ANACONDA         N/A     52  37  58 W3        30.14R
DEER LODGE       N/A     52  39  62 CALM      30.14R
EUREKA           N/A     55  39  54 MISG      30.02R
HAMILTON         N/A     55  43  62 S3        30.10R
LIBBY            N/A     48  39  71 CALM      30.03R
$$

MTZ008-052>055-211200-
SOUTHWEST MONTANA

CITY           SKY/WX    TMP DP  RH WIND       PRES   REMARKS
DILLON         CLEAR     59  36  42 S9        30.12R
W YELLOWSTONE  CLEAR     41  36  81 S7        30.20R
ENNIS          PTCLDY    52  37  58 CALM      30.17R
THREE FORKS      N/A     49  41  74 CALM      30.07R
TWIN BRIDGES     N/A     54  35  48 CALM      30.10R
$$

MTZ009-010-012-014-046-048-049-054-211200-
EAST SLOPES AND CENTRAL MONTANA

CITY           SKY/WX    TMP DP  RH WIND       PRES   REMARKS
CUT BANK       MOCLDY    56  32  40 W10       30.00S
GREAT FALLS    CLOUDY    60  26  27 SW8       30.01R
MALMSTROM AFB  CLOUDY    62  31  31 NW3       30.01R
HELENA         CLEAR     66  35  31 S7        30.07R
CHOTEAU          N/A     59  32  36 MISG      30.03R
$$

MTZ011-013-016-021-045-047-050-051-211200-
NORTH CENTRAL MONTANA

CITY           SKY/WX    TMP DP  RH WIND       PRES   REMARKS
HAVRE          CLEAR     57  37  47 SW10      29.91R
LEWISTOWN      PTCLDY    63  33  32 W8        30.01R
N BAR RANCH      N/A     66  30  26 NW14G22   30.02R
CHINOOK          N/A     61  43  51 SW5       29.89R
$$

MTZ017>020-022>027-061-062-211200-
NORTHEAST MONTANA

CITY           SKY/WX    TMP DP  RH WIND       PRES   REMARKS
GLASGOW        CLOUDY    67  54  63 SE13      29.83R
JORDAN           N/A     62  54  74 NW9       29.85R
SIDNEY         CLOUDY    65  59  81 E5        29.78F
WOLF POINT     PTCLDY    68  56  65 NE13      29.81R
MALTA          CLEAR     61  50  67 NW3       29.84R
PLENTYWOOD       N/A     64  54  68 NE21G29   29.76F
POPLAR           N/A     66  57  72 NE16      29.79S
$$

MTZ028>42-056>058-211200-
SOUTHCENTRAL AND SOUTHEAST MONTANA

CITY           SKY/WX    TMP DP  RH WIND       PRES   REMARKS
BAKER          CLOUDY    65  59  81 SE6       29.85S
BILLINGS       PTCLDY    70  32  24 W12       29.96R
LIVINGSTON     CLEAR     66  31  27 W15       30.07R
MILES CITY     CLOUDY    72  50  45 S5        29.79R
BIG TIMBER     PTCLDY    66  30  26 W14G21    30.05R
FORSYTH          N/A     75  43  31 W12       29.82R
LAUREL           N/A     64  31  29 CALM      29.97R
$$

REGIONAL REPORTS...DAKOTAS

CITY           SKY/WX    TMP DP  RH WIND       PRES   REMARKS
WILLISTON      CLEAR     66  59  78 NE8       29.80F
MINOT          CLOUDY    65  59  81 N14       29.81R
DICKINSON      PTCLDY    68  62  81 S16       29.80R
BEACH            N/A     68  64  88 S8G16     29.85R
CROSBY           N/A     61  61 100 E8        29.80S
TIOGA            N/A     61  61 100 NE6       29.84S
WATFORD CITY     N/A     61  59  94 NE3       29.81S
BISMARCK       MOCLDY    66  63  90 CALM      29.80R
GRAND FORKS    CLOUDY    71  68  90 SE9       29.81F
FARGO          CLOUDY    74  70  87 SE10      29.81F
BUFFALO SD       N/A     65  63  93 SW6       29.81F
RAPID CITY     CLOUDY    65  62  90 SW3       29.91R
$$

REGIONAL REPORTS...WYOMING/IDAHO/WASHINGTON

CITY           SKY/WX    TMP DP  RH WIND       PRES   REMARKS
GILLETTE       CLOUDY    69  55  60 SW20      29.91R
SHERIDAN       CLOUDY    61  54  77 S10       29.98R
BUFFALO WY     CLOUDY    69  47  45 N14       30.01R
CODY           CLOUDY    56  50  80 SW3       30.09R
YELLOWSTONE LA   N/A     39  38  96 NW3       30.29R
IDAHO FALLS    CLEAR     58  46  64 S6        30.09R
BOISE          CLEAR     62  44  51 S3        30.02R
SPOKANE        PTCLDY    55  44  66 S10       30.05R
$$

REGIONAL REPORTS...ALBERTA

CITY           SKY/WX    TMP DP  RH WIND       PRES   REMARKS
EDMONTON       CLOUDY    55  54  94 SW7       29.81F
CALGARY        MOCLDY    59  36  41 W10G17    29.93R
LETHBRIDGE     CLEAR     50  41  71 W3        29.95R
MEDICINE HAT   CLEAR     55  50  82 W6        29.89R
WATERTON GATE    N/A     55  36  47 W6          N/A
CARDSTON         N/A     54  36  50 SW3         N/A
MILK RIVER       N/A     50  41  71 NW9         N/A
$$

REGIONAL REPORTS...SASKATCHEWAN

CITY           SKY/WX    TMP DP  RH WIND       PRES   REMARKS
SWIFT CURRENT  CLEAR     57  52  82 SW9       29.82S
REGINA         PTCLDY    64  59  82 E16       29.80S
SASKATOON      MOCLDY    61  54  77 VRB18G24  29.82R
CYPRESS HILLS    N/A     57  45  62 NW9         N/A
ROCKGLEN         N/A     57  52  82 S7          N/A
$$



USA.gov is the U.S. government's official web portal to all federal, state and local government web resources and services.